Regional Weather Roundup
Issued by NWS

Home | Current Version | Previous Version | Text Only | Print | Product List | Glossary On
Versions: 1 2 3 4 5 6 7 8 9 10 11 12 13 14 15 16 17 18 19 20 21 22 23 24 25 26 27 28 29 30 31 32 33 34 35 36 37 38 39 40 41 42 43 44 45 46 47 48 49 50
000
ASUS43 KMPX 231801
RWRMN
WEATHER ROUNDUP FOR MINNESOTA
NATIONAL WEATHER SERVICE TWIN CITIES/CHANHASSEN MN
1200 PM CST TUE JAN 23 2018


NOTE: "FAIR" INDICATES FEW OR NO CLOUDS BELOW 12,000 FEET WITH NO
SIGNIFICANT WEATHER AND/OR OBSTRUCTIONS TO VISIBILITY. N/A MEANS
CURRENT SKY AND/OR WEATHER CONDITIONS ARE NOT AVAILABLE.

MNZ060>063-068>070-231900-
   Twin Cities Metro

CITY           SKY/WX    TMP DP  RH WIND       PRES   REMARKS
TWIN CITIES    FAIR      22  14  71 NW9       30.06R WCI  12
6HR MIN TEMP:  18; 6HR MAX TEMP:  22;

ST PAUL        FAIR      20  12  71 NW10      30.07R WCI   9
CRYSTAL        FAIR      21  10  62 W7        30.05S WCI  12
LAKEVILLE      FAIR      19  14  79 W9        30.04S WCI   9
EDEN PRAIRIE   FAIR      22  12  65 NW10      30.05R WCI  11
6HR MIN TEMP:  18; 6HR MAX TEMP:  22;

SOUTH ST PAUL  FAIR      22  13  67 NW9       30.05R WCI  11
LAKE ELMO      FAIR      19  12  73 NW9       30.04S WCI   9
$$
MNZ001>005-007-008-013>017-022>024-027-028-231900-
   Northwest Minnesota

CITY           SKY/WX    TMP DP  RH WIND       PRES   REMARKS
BEMIDJI        FAIR      18  12  77 CALM      30.07F
HALLOCK        CLOUDY    19  18  93 SE13      30.09F WCI   7
ROSEAU         FAIR      18  12  79 CALM      30.11R
WARROAD        FAIR      14   9  79 NE3       30.11S
CROOKSTON      FAIR      19  16  86 S6        30.12S WCI  11
FOSSTON        CLOUDY    21  16  79 CALM      30.09S
DETROIT LAKES  CLOUDY    21  18  86 SW6       30.09F WCI  14
MOORHEAD       LGT RAIN  19  16  86 S3        30.12F
PARK RAPIDS    FAIR      21  14  74 W6        30.07S WCI  13
MAHNOMEN       CLOUDY    19  14  81 CALM      30.09S
$$
MNZ006-009>011-018-025>026-231900-
   North Central Minnesota

CITY           SKY/WX    TMP DP  RH WIND       PRES   REMARKS
BAUDETTE       FAIR      11   1  64 SE5       30.09F WCI   3
FLAG ISLAND    PTSUNNY   10   1  67 S6        30.10F WCI   1
INTL FALLS     FAIR       9  -1  64 CALM      30.09F
6HR MIN TEMP:  -4; 6HR MAX TEMP:   9;

WASKISH        FAIR      14   5  67 CALM      30.09F
BIG FORK       FAIR      16   7  67 CALM      30.07F
LONGVILLE      FAIR      16   7  67 W5        30.08S WCI   9
GRAND RAPIDS   FAIR      18   7  62 NW6       30.08S WCI  10
CRANE LAKE     FAIR       7  -4  61 CALM      30.11F
COOK           PTSUNNY    9   0  66 W3        30.07S
WALKER         FAIR      19   5  52 CALM      30.08S
$$
MNZ012-019>021-037-231900-
   Northeast Minnesota

CITY           SKY/WX    TMP DP  RH WIND       PRES   REMARKS
DULUTH         FAIR      16   4  59 N7        30.00S WCI   6
6HR MIN TEMP:   3; 6HR MAX TEMP:  16;

HIBBING        FAIR      13   3  64 NW6       30.04S WCI   4
EVELETH        FAIR      13  -1  54 NE6       30.04F WCI   3
DULUTH HARBOR  FAIR      18   9  68 W7        30.07F WCI   8
TWO HARBORS    FAIR      28  18  64 NE3       29.99S
GRAND MARAIS     N/A     27   6  41 VRB7      30.01R WCI  19
G MARAIS ARPRT FAIR      16  -2  45 N16       29.93S WCI   0
$$
MNZ029>031-032-039>041-046>048-054>057-064-231900-
   West Central Minnesota

CITY           SKY/WX    TMP DP  RH WIND       PRES   REMARKS
FERGUS FALLS   CLOUDY    19  16  86 W6        30.11S WCI  11
WHEATON        CLOUDY    21  18  86 W5        30.15S WCI  15
MORRIS         CLOUDY    23  18  80 NW5       30.11S WCI  17
ALEXANDRIA     FAIR      24  14  65 VRB3      30.08F
ELBOW LAKE     CLOUDY    21  17  82 NW5       30.12R WCI  15
WADENA         FAIR      21  14  73 CALM      30.08F
GLENWOOD       FAIR      25  16  68 NW3       30.09F
APPLETON       CLOUDY    25  18  74 NW7       30.12F WCI  17
BENSON         PTSUNNY   27  18  69 NW8       30.13S WCI  18
ORTONVILLE     PTSUNNY   21  18  86 CALM      30.11F
MADISON        CLOUDY    25  19  80 NW3       30.13F
WILLMAR        FAIR      25  16  68 NW10      30.12F WCI  15
$$
MNZ033>034-036-042>043-049>051-058-059-231900-
   Central Minnesota

CITY           SKY/WX    TMP DP  RH WIND       PRES   REMARKS
ST CLOUD       FAIR      24  12  60 NW10      30.07R WCI  14
6HR MIN TEMP:  15; 6HR MAX TEMP:  24;

SAUK CENTRE      N/A     22  13  69 NW8       30.09S WCI  13
PAYNESVILLE    FAIR      26  16  66 N8        30.09S WCI  17
AITKIN         FAIR      16   7  67 NW5       30.05S WCI   9
PINE RIVER     FAIR      18   7  62 N5        30.10F WCI  11
BRAINERD       FAIR      21   7  54 N8        30.07S WCI  11
STAPLES        FAIR      21  12  68 N6        30.08S WCI  14
LONG PRAIRIE   FAIR      23  14  68 NW6       30.09S WCI  16
LITTLE FALLS   FAIR      21   7  53 NW5       30.09  WCI  15
LITCHFIELD     FAIR      27  16  63 NW10      30.08S WCI  17
BUFFALO        FAIR      24  13  64 NW8       30.08S WCI  15
MAPLE LAKE     FAIR      26  15  64 MISG      30.07S
HUTCHINSON     FAIR      27  17  66 NW12      30.08S WCI  16
$$
MNZ037-044-045-052-053-231900-
   East Central Minnesota

CITY           SKY/WX    TMP DP  RH WIND       PRES   REMARKS
PRINCETON      FAIR      25  12  58 NW7       30.06R WCI  17
MORA           FAIR      21  10  63 NW7       30.07R WCI  13
CAMBRIDGE      FAIR      21  10  63 NW6       30.06R WCI  14
RUSH CITY      FAIR      18   8  66 N6        30.06R WCI   9
MOOSE LAKE     FAIR      16   3  57 NW8       30.03F WCI   5
HINCKLEY       FAIR      18   7  62 NW6       30.05S WCI   9
CLOQUET        FAIR      14   1  57 NW7       30.02S WCI   4
MCGREGOR       FAIR      19   7  58 NW6       30.06S WCI  11
$$
MNZ071>073-080-081-089-090-097-098-231900-
   Southwest Minnesota

CITY           SKY/WX    TMP DP  RH WIND       PRES   REMARKS
MONTEVIDEO     CLOUDY    27  19  74 N8        30.12F WCI  18
GRANITE FALLS  FAIR      27  19  70 NW7       30.13F WCI  19
CANBY          CLOUDY    24  20  85 CALM      30.13F
MARSHALL       CLOUDY    23  19  85 NW8       30.12F WCI  14
REDWOOD FALLS  FAIR      27  16  63 NW8       30.10F WCI  19
OLIVIA         FAIR      28  18  64 NW10      30.09F WCI  19
PIPESTONE      CLOUDY    19  18  93 NW5       30.09F WCI  13
WINDOM         FAIR      21   7  53 NW10      30.09S WCI  10
WORTHINGTON    CLOUDY    23  20  88 NW13      30.11R WCI  11
JACKSON        FAIR      23  18  80 NW14      30.10R WCI  11
TRACY          CLOUDY    24  20  85 N8        30.10F WCI  15
SLAYTON        CLOUDY    22  19  87 NW8       30.10F WCI  13
$$
MNZ065>067-074>077-082>085-091>093-231900-
   South Central Minnesota

CITY           SKY/WX    TMP DP  RH WIND       PRES   REMARKS
MANKATO        FAIR      21  14  74 NW12      30.08S WCI   9
NEW ULM        FAIR      21  14  73 NW16      30.09S WCI   7
ST JAMES       FAIR      21  18  86 W13       30.11S WCI   9
FAIRMONT       FAIR      24  19  81 NW16      30.10R WCI  11
FARIBAULT      PTSUNNY   19  14  79 NW7       30.06R WCI  10
WASECA         CLOUDY    19  16  86 NW9       30.07R WCI   9
ALBERT LEA     CLOUDY    19  16  86 NW9       30.04S WCI   9
$$
MNZ078>079-086>088-094>096-231900-
   Southeast Minnesota

CITY           SKY/WX    TMP DP  RH WIND       PRES   REMARKS
ROCHESTER      CLOUDY    20  17  88 NW13      29.99R WCI   7
6HR MIN TEMP:  16; 6HR MAX TEMP:  21; 6HR PCP: TRACE;

RED WING       PTSUNNY   21  12  68 NW8       30.03R WCI  12
STANTON        FAIR      21  15  78 NW12      30.03R WCI  10
DODGE CENTER   FAIR      19  16  86 NW15      30.00S WCI   5
WINONA         CLOUDY    23  18  80 NW8       30.01R WCI  14
PRESTON        CLOUDY    20  17  85 NW10      29.99S WCI   9
$$
ABBREVIATIONS USED IN REMARKS
   TC - TEMPERATURES IN CELSIUS
  WCI - WIND CHILL INDEX
   HX - HEAT INDEX
  VSB - VISIBILITY
$$



USA.gov is the U.S. government's official web portal to all federal, state and local government web resources and services.